Погода в Тикси

Погода в Тикси : погода сейчас, прогноз погоды и архив. Всё, что Вы хотите узнать о погоде в Тикси!

Хотите узнать прогноз погоды в Тикси? Тогда Вам сюда: Погода в Тикси

Поиск расширенной информации на нашем сайте:

Другие новости

Новости СМИ2

Главная страница сайта

Новости сайта

03.07.2017

Напоминаем, что на нашем специализированном сайте Метеоцентр.Азия вы можете получить высокодетализированные автоматические прогнозы погоды по пунктам России, СНГ и мира в авиационном формате (включающие направление и скорость ветра, видимость, явления погоды, количество и форму облачности, нижнюю и верхнюю границу облачности).

Рекомендуем: Запчасти КамАЗ на экспорт: KAMAZ spare parts and details

Погода в Тикси - сегодня

Время (UTC), дата Ветер
(°,м/с) 
Видим.   Явления Облачность Т
(°С)
Тd
(°С)
f(%) Тe
(°С)
Pmin
(гПа)
dP
(гПа)
Po
(мм)
O2
(г/м3)
Тmin Tmax R s Состояние
почвы
00 14.04.18 180 (Ю) 7-10{11}  20000 м  позёмок  6/0 средняя, верхняя 
[Ac lent|Ci fib]
-4.5 -12.1 55 -9  1008.6  -1.7  756  311  -11.1      20  неравномерный
сухой снег
100% 
18 14.04.18 210 (ЮЗ) 20000 м    10/0 средняя, верхняя 
[Ac trans|Cs]
-3.3 -8 70 -6  1003.5  -1  752  308           
21 14.04.18 200 (Ю) 20000 м    10/0 средняя 
[Ac As]
-1.2 -5.6 72 -4  1001.7  -1.8  751  304           
00 15.04.18 190 (Ю) 7-10{11}  20000 м    9/0 средняя 
[Ac trans]
+1.5 -4.6 64 -2  999.4  -2.2  749  301  -5.8      19  неравномерный
сухой снег
100% 
15 15.04.18 220 (ЮЗ) 20000 м    10/6 1000 м средняя, верхняя 
[Sc|Ac trans|Ci fib]
+3.3 -2.1 68 +1  997.7  1.2  748  298           
00 16.04.18 330 (СЗ) 7{11}  4000 м  слаб. снег  10/10 600 м 
[Sc]
-7.1 -9.2 85 -12  1003.2  0.8  752  312  -7.2    0.2  19  неравномерный
сухой снег
100% 
06 16.04.18 340 (С) 10 км  слаб. снег  9/4 1000 м средняя 
[Sc|Ac trans]
-7.3 -9 88 -12  1002.4  -0.3  751  312           
09 16.04.18 350 (С) 20000 м  {снег}  10/3 1000 м средняя 
[Sc|Ac trans]
-6.6 -8.2 88 -9  1002.7  0.3  751  311           
15 16.04.18 290 (З) 4000 м  слаб. снег  10/5 1000 м средняя 
[Sc|Ac As]
-7.6 -10.2 82 -11  1004.1  0.4  752  313           
18 16.04.18 280 (З) 4000 м  слаб. снег  10/8 300 м средняя 
[Sc|Ac As]
-8.2 -10.1 86 -13  1004.6  0.5  753  314           
03 17.04.18 тихо ()   10 км  слаб. снег  10/4 600 м средняя 
[Sc|Ac trans]
-6.8 -8.8 86 -7  1004.8  753  312           
06 17.04.18 350 (С) 10 км  слаб. снег  10/6 300 м средняя 
[Sc|Ac trans]
-7.4 -9.1 88 -10  1005.2  0.4  753  313           
09 17.04.18 330 (СЗ) 20000 м  снежные кристаллы  10/4 300 м средняя 
[Sc|Ac und]
-7 -10.4 77 -10  1004.3  -0.9  752  312           
15 17.04.18 280 (З) 4000 м  слаб. снег  10/6 300 м средняя 
[Sc|As op]
-8.7 -10.7 85 -14  1002.1  -1.2  751  314           
18 17.04.18 290 (З) 4000 м  слаб. снег  10/0 средняя 
[As op]
-9.6 -11.7 85 -15  1001.6  -0.5  751  315           
00 18.04.18 280 (З) 8-10{12}  20000 м  снежные кристаллы  10/8 600 м средняя 
[Sc|Ac und]
-9 -11.9 79 -15  1001.9  0.1  751  314  -10.3    22  неравномерный
сухой снег
100% 
06 18.04.18 240 (ЮЗ) 20000 м  снежные кристаллы  10/4 1000 м средняя, верхняя 
[Sc|Ac trans|Ci fib]
-7.2 -11.5 71 -12  1004  752  312           
09 18.04.18 270 (З) 20000 м  снежные кристаллы  10/5 600 м средняя, верхняя 
[Sc|Ac trans|Ci fib]
-7.9 -12 72 -12  1004.5  0.5  753  313           
15 18.04.18 250 (З) 20000 м  снежные кристаллы  10/3 600 м средняя, верхняя 
[Sc|Ac trans|Ci fib]
-12.3 -15 80 -12  1006.4  0.9  754  320           
18 18.04.18 220 (ЮЗ) 20000 м  {снег}  10/0 средняя, верхняя 
[Ac trans|Ci fib]
-16.2 -17.9 87 -19  1006.8  0.4  754  325           
21 18.04.18 190 (Ю) 20000 м    10/0 средняя, верхняя 
[Ac trans|Ci fib]
-14.4 -15.7 90 -17  1007.1  0.3  755  322           
00 19.04.18 010 (С) 20000 м    8/0 средняя, верхняя 
[Ac trans|Ci fib]
-15.4 -16.7 90 -19  1007.3  0.2  755  324  -17.3    0.0  21  неравномерный
сухой снег
100% 
03 19.04.18 тихо ()   20000 м  снежные кристаллы  10/1 300 м верхняя 
[Sc|Ci fib]
-13.1 -16 79 -13  1007.1  -0.2  755  321           
06 19.04.18 030 (СВ) 20000 м  {снег}  ясно 
-12.1 -13.7 88 -14  1006.7  -0.4  754  319           
09 19.04.18 350 (С) 20000 м    10/0 средняя, верхняя 
[Ac trans|Ci fib]
-12.9 -14.2 90 -16  1006.7  754  320           
Время (UTC), дата Ветер
(°,м/с) 
Видим.   Явления Облачность Т
(°С)
Тd
(°С)
f(%) Тe
(°С)
Pmin
(гПа)
dP
(гПа)
Po
(мм)
O2
(г/м3)
Тmin Tmax R s Состояние
почвы

Для получения пояснительной информации подведите курсор к названию столбца.

ПОГОДА в Тикси - архив

Всё, что Вы хотите узнать о погоде в Тикси - удобно и подробно!

Выберите нужную дату (начиная с 1 января 2015* года) и нажмите кнопку "Найти".
Будут отображены архивные сводки погоды по пункту Тикси, начиная с указанной даты.


Отображать данные в формате CSV (для использования в таблицах Excel)


Внимание! Наш архив погоды предназначен исключительно для личного некоммерческого использования в познавательных целях. Если Вам необходимы официальные справки о состоянии погоды (для производственных, юридических, коммерческих и т.п. целей), обращайтесь в органы Росгидромета.

*Примечание: данная дата относится к архиву по метеостанциям СССР (Россия, СНГ, Балтия).
Архив по метеостанциям Зарубежной Европы и Азии (кроме Китая) хранится 10 дней, по другим регионам земного шара (Китай, Африка, Америка, Австралия, Океания) - 1 день.

Тикси - район местоположения метеостанции


Название, широта, долгота, высота метеостанции:
Тикси (посёлок) 71.6°ш. 128.9°д. 7 м над ур. моря [Российская Федерация]

Дополнительная информация

В oтличие oт бoльшинства пoгoдных сайтoв мы публикуем пoдрoбную метеoинфoрмацию в детальнoм прoфессиoнальнoм фoрмате.

Характеристики температуры и влажнoсти вoздуха измеряются на высoте 2 м в тени вдали oт зданий и деревьев.
Скoрoсть ветра измеряется на высoте 10 м (на урoвне рoста челoвека скoрoсть ветра ниже в 1.5-2 раза). Если метеoстанция нахoдится в гoрoде или в лесу, тo скoрoсть ветра занижена на 2-4 м/с пo сравнению с oткрытым местoм. Скoрoсть ветра над акватoриями крупных рек и oзёр, а также на вершинах хoлмoв на 2-5 м/с выше, чем в oбычных услoвиях.
Атмoсфернoе давление в разных тoчках местнoсти мoжет значительнo oтличаться oт давления на метеoстанции, в зависимoсти oт услoвий рельефа (при пoдъёме на 10 м давление пoнижается примернo на 1 мм рт.ст.).